Location: Windsor
(43.2292°N, 89.3015°W)
Time: 06:16:25
(UTC+00:00)

First-Move - Pass Details

Date: 05 July 2022
Orbit: 572 x 658 km, 97.6° (Epoch: 11 August)

Event Time Altitude Azimuth Distance (km) Brightness Sun altitude
Rises 08:40:33 0° 34° (NE) 2,972 ? -14.6°
Reaches altitude 10° 08:44:08 10° 64° (ENE) 2,067 ? -14.2°
Maximum altitude 08:46:00 12° 89° (E) 1,911 ? -14.0°
Drops below altitude 10° 08:47:54 10° 114° (ESE) 2,069 ? -13.8°
Sets 08:51:28 0° 144° (SE) 2,977 ? -13.4°
